Regional Weather Roundup
Issued by NWS

Home | Current Version | Previous Version | Text Only | Print | Product List | Glossary On
Versions: 1 2 3 4 5 6 7 8 9 10 11 12 13 14 15 16 17 18 19 20 21 22 23 24 25 26 27 28 29 30 31 32 33 34 35 36 37 38 39 40 41 42 43 44 45 46 47 48 49 50
000
ASUS46 KSEW 050110
RWRWA

WASHINGTON REGIONAL WEATHER ROUNDUP
NATIONAL WEATHER SERVICE SEATTLE WA
600 PM PDT FRI SEP 04 2015

NOTE:"FAIR" INDICATES FEW OR NO CLOUDS BELOW 12,000 FEET WITH NO
SIGNIFICANT WEATHER AND/OR OBSTRUCTIONS TO VISIBILITY.

WAZ505-507>509-050200-
SEATTLE, TACOMA, EVERETT, AND VICINITY

CITY           SKY/WX    TMP DP  RH WIND       PRES   REMARKS
EVERETT        PTSUNNY   58  48  69 N6        30.01S
BOEING FIELD   PTSUNNY   64  47  53 N7        29.98F
RENTON         PTSUNNY   62  49  62 NW9       29.98F
SEATAC AIRPORT PTSUNNY   62  48  60 N9        29.99F
JBLM-MCCHORD   MOSUNNY   64  47  53 N8        29.98S
PUYALLUP       PTSUNNY   64  48  55 CALM      29.98F
BREMERTON      MOSUNNY   61  46  59 NE9       30.02S
JBLM-FT LEWIS  MOSUNNY   63  46  52 NW8       29.97F
TACOMA NARROWS MOSUNNY   62  47  57 N9        29.99F
$$

WAZ001-503-506-510-514-515-050200-
NORTH INTERIOR

CITY           SKY/WX    TMP DP  RH WIND       PRES   REMARKS
BELLINGHAM     MOSUNNY   64  46  52 W6        29.98R
FRIDAY HARBOR  SUNNY     63  45  51 N5        30.01R
EASTSOUND      SUNNY     59  48  67 NW5       29.98S
PORT ANGELES   SUNNY     59  45  59 N7        30.01S
PORT TOWNSEND  CLOUDY    63  45  51 NW5       30.01S
NAS WHIDBEY    PTSUNNY   59  49  69 SW12      30.05R
ARLINGTON      CLOUDY    52  46  82 CALM      30.01F
BURLINGTON     PTSUNNY   63  48  59 CALM      30.00R
$$

WAZ020-022-039-040-504-511-512-050200-
SOUTHWEST INTERIOR

CITY           SKY/WX    TMP DP  RH WIND       PRES   REMARKS
SHELTON        PTSUNNY   61  50  67 S5        29.97S
OLYMPIA        MOSUNNY   63  45  51 NE8       29.99R
CHEHALIS       PTSUNNY   66  46  48 N9        29.98R
KELSO          NOT AVBL
VANCOUVER      PTSUNNY   65  42  43 NW9       29.95R
SCAPPOOSE, OR  PTSUNNY   66  43  43 N9        29.94R
PORTLAND, OR   PTSUNNY   65  44  46 NW10      29.95R
$$

WAZ021-516-517-050200-
WASHINGTON COAST

CITY           SKY/WX    TMP DP  RH WIND       PRES   REMARKS
FORKS          MOSUNNY   63  48  58 NW8       30.00R
HOQUIAM        MOSUNNY   62  50  64 W14       29.99S
ASTORIA, OR    MOSUNNY   62  51  67 NW14      29.99R
$$

WAZ019-023-024-040-518-519-050200-
CASCADE MOUNTAINS AND COLUMBIA GORGE

CITY           SKY/WX    TMP DP  RH WIND       PRES   REMARKS
TROUTDALE, OR  MOSUNNY   65  41  41 W7        29.94R
THE DALLES, OR CLOUDY    65  39  38 N14G24    29.89R
$$

WAZ026-027-041>044-520-521-050200-
EAST SLOPES

CITY           SKY/WX    TMP DP  RH WIND       PRES   REMARKS
OMAK           PTSUNNY   70  31  23 N17       29.86S
WENATCHEE      CLOUDY    69  32  25 NW9       29.85S
ELLENSBURG     CLOUDY    65  36  34 W9        29.88S
YAKIMA         CLOUDY    67  37  33 W8        29.87S
$$

WAZ028-034-035-050200-
COLUMBIA BASIN

CITY           SKY/WX    TMP DP  RH WIND       PRES   REMARKS
EPHRATA        CLOUDY    70  28  21 N5        29.83F
MOSES LAKE     CLOUDY    70  28  21 NW7       29.84F
PASCO          CLOUDY    70  33  25 S7        29.83F
HERMISTON, OR  CLOUDY    65  41  41 S13       29.84F
$$

WAZ036>038-050200-
NORTHEAST WASHINGTON

CITY           SKY/WX    TMP DP  RH WIND       PRES   REMARKS
SPOKANE GEIGER PTSUNNY   68  30  24 N12       29.83F
SPOKANE FELTS  MOSUNNY   71  34  25 VRB3      29.83F
FAIRCHILD AFB  PTSUNNY   66  29  24 N7        29.83F
COEURDALENE,ID SUNNY     66  36  32 NE16      29.83S
DEER PARK      MOSUNNY   68  28  22 NE10      29.85S
$$

WAZ029>033-050200-
SOUTHEAST WASHINGTON

CITY           SKY/WX    TMP DP  RH WIND       PRES   REMARKS
PULLMAN        CLOUDY    67  29  24 W8        29.84R
LEWISTON, ID   CLOUDY    70  32  24 E12       29.78S
WALLA WALLA    CLOUDY    63  40  42 S12       29.85F
PENDLETON, OR  CLOUDY    55  48  77 S9        29.86F
$$


USA.gov is the U.S. government's official web portal to all federal, state and local government web resources and services.